Weather History for KNFL - January, 2013

Change the Weather History Date:

Wednesday, January 23, 2013

  Actual Average Record
Temperature  
Mean Temperature 30 °F -  
Max Temperature 44 °F 45 °F 68 °F (1965)
Min Temperature 17 °F 20 °F -14 °F (1937)
Degree Days  
Heating Degree Days 34    
Moisture  
Dew Point 16 °F    
Average Humidity 62    
Maximum Humidity 81    
Minimum Humidity 35    
Precipitation  
Precipitation 0.00 in - - ()
Sea Level Pressure  
Sea Level Pressure 30.05 in    
Wind  
Wind Speed 4 mph (NNE)    
Max Wind Speed 8 mph    
Max Gust Speed -    
Visibility 9 miles    
Events      
Averages and records for this station are not official NWS values.
T = Trace of Precipitation, MM = Missing Value Source: NWS Daily Summary

Daily Weather History Graph

Daily Weather History Graph

Search for Another Location

Airport or City:

Trip Planner

Search our weather history database for the weather conditions in past years. The results will help you decide how hot, cold, wet, or windy it might be!

Date:

Astronomy

Jan. 23, 2013 Rise Set
Actual Time 7:08 AM PST 5:05 PM PST
Civil Twilight 6:39 AM PST 5:33 PM PST
Nautical Twilight 6:07 AM PST 6:06 PM PST
Astronomical Twilight 5:35 AM PST 6:38 PM PST
Moon 2:19 PM PST (1/23) 4:24 AM PST (1/23)
Length of Visible Light 10h 53m
Length of Day
9h 56m
Waxing Gibbous, 90% of the Moon is Illuminated
Jan 23
Waxing Gibbous
Jan 26
Full
Feb 3
Last Quarter
Feb 9
New
Feb 17
First Quarter

Hourly Weather History & Observations

Time (PST) Temp. Windchill Dew Point Humidity Pressure Visibility Wind Dir Wind Speed Gust Speed Precip Events Conditions
12:56 AM 17.1 °F 6.6 °F 10.9 °F 77% 30.09 in 10.0 mi ENE 8.1 mph - N/A   Clear
1:56 AM 19.9 °F 12.1 °F 12.9 °F 74% 30.09 in 10.0 mi NE 5.8 mph - N/A   Clear
2:56 AM 18.0 °F 9.8 °F 12.0 °F 78% 30.09 in 9.0 mi North 5.8 mph - N/A   Clear
3:56 AM 17.1 °F 8.7 °F 12.0 °F 81% 30.07 in 9.0 mi ENE 5.8 mph - N/A   Clear
4:56 AM 19.0 °F - 12.0 °F 74% 30.06 in 8.0 mi Calm Calm - N/A   Clear
5:56 AM 19.0 °F - 12.0 °F 74% 30.08 in 8.0 mi Calm Calm - N/A   Clear
6:21 AM 19.4 °F - 12.2 °F 74% 30.17 in 8.0 mi Calm Calm - N/A   Mostly Cloudy
6:56 AM 19.9 °F - 12.0 °F 71% 30.06 in 8.0 mi Calm Calm - N/A   Mostly Cloudy
7:56 AM 21.0 °F - 14.0 °F 74% 30.06 in 7.0 mi Calm Calm - N/A   Mostly Cloudy
8:56 AM 21.9 °F - 14.0 °F 72% 30.06 in 8.0 mi Calm Calm - N/A   Mostly Cloudy
9:56 AM 25.0 °F - 15.1 °F 66% 30.08 in 8.0 mi Calm Calm - N/A   Mostly Cloudy
10:56 AM 28.9 °F 25.2 °F 16.0 °F 58% 30.07 in 9.0 mi NNE 3.5 mph - N/A   Mostly Cloudy
11:56 AM 33.1 °F - 17.1 °F 52% 30.05 in 9.0 mi Calm Calm - N/A   Mostly Cloudy
12:56 PM 37.9 °F 35.5 °F 18.0 °F 45% 30.04 in 10.0 mi Variable 3.5 mph - N/A   Mostly Cloudy
1:56 PM 39.9 °F 34.5 °F 19.0 °F 43% 30.00 in 10.0 mi ENE 8.1 mph - N/A   Mostly Cloudy
2:56 PM 44.1 °F 40.8 °F 18.0 °F 35% 29.99 in 10.0 mi NE 5.8 mph - N/A   Mostly Cloudy
3:56 PM 43.0 °F 41.3 °F 19.0 °F 38% 29.99 in 10.0 mi North 3.5 mph - N/A   Overcast
4:56 PM 39.9 °F - 19.0 °F 43% 29.99 in 10.0 mi Calm Calm - N/A   Overcast
5:56 PM 35.1 °F 29.3 °F 19.0 °F 52% 29.99 in 10.0 mi NNE 6.9 mph - N/A   Mostly Cloudy
6:56 PM 33.1 °F 30.0 °F 19.0 °F 56% 30.01 in 10.0 mi North 3.5 mph - N/A   Mostly Cloudy
7:56 PM 33.1 °F 30.0 °F 21.0 °F 61% 30.02 in 10.0 mi NNE 3.5 mph - N/A   Overcast
8:56 PM 34.0 °F - 21.9 °F 61% 30.04 in 10.0 mi Calm Calm - N/A   Overcast
9:56 PM 34.0 °F - 21.9 °F 61% 30.03 in 10.0 mi Calm Calm - N/A   Overcast
10:56 PM 34.0 °F 31.0 °F 21.9 °F 61% 30.04 in 10.0 mi North 3.5 mph - N/A   Overcast
11:56 PM 33.1 °F - 21.9 °F 64% 30.05 in 10.0 mi Calm Calm - N/A   Overcast